Powrót do katalogu

SCOUT X-1 R/B

AktywnyUNKNOWN
NORAD 82·ROCKET BODY·🇺🇸 United States

Wystrzelony Feb 16, 1961 z Wallops Flight Facility

Loading…

Następne Przeloty (najbliższe 24 godziny)

TLE

ŚwieżeSource: Space-Track

Epoka: Sep 14, 2026, 08:27 UTC

1 00082U 61004B   26257.35269122  .00000111  00000-0  11928-3 0  9990
2 00082  38.8646  28.5825 1166565 297.7463  50.9700 12.27940075 87761

Śledź SCOUT X-1 R/B w czasie rzeczywistym z AllMySat

Download on the App Store